[[{"header":{"parameterUnit":"m.s-1","parameterCategory":1,"la1":30.2991,"la2":30.254,"lo1":-89.0895,"lo2":-89.0444,"dy":0.0017,"dx":0.0017,"nx":28,"ny":28,"refTime":"2025-12-20T09:00:00:Z","depth":0,"parameterNumber":2,"parameterNumberName":"U-component_of_WINDS"},"data":[0,0,0,0,0,0,0,0,0,0,0,0,0,0,0,0,0,0,0,0,0,0,0,0,0,0,0,0,0,0,0,0,0,0,0,0,0,0,0,0,0,0,0,0,0,0,0,0,0,0,0,0,0,0,0,0,0,0,-3.9422,-3.9422,0,-3.9458,-3.9458,-3.9458,-3.9322,-3.9317,-3.9313,-3.931,-3.9346,-3.9351,-3.9355,0,0,0,0,0,0,0,0,0,0,0,0,0,-3.9235,-3.9239,-3.9422,-3.9422,-3.9423,-3.9457,-3.9458,-3.9458,-3.9322,-3.9317,-3.9312,-3.9308,-3.9344,-3.935,-3.9356,0,0,0,0,0,0,0,0,0,0,0,0,0,-3.9298,-3.924,-3.9422,-3.9359,-3.9354,-3.9457,-3.9458,-3.9459,-3.9323,-3.9317,-3.9311,-3.9305,-3.9343,-3.9349,-3.9357,-3.9522,0,0,-3.9378,-3.9381,0,0,0,0,0,0,0,0,-3.9295,-3.9305,-3.9368,-3.9363,-3.9358,-3.9379,-3.9405,-3.948,-3.9325,-3.9335,-3.9309,-3.9302,-3.9362,-3.9367,-3.9387,-3.9524,-3.9526,-3.9379,-3.9383,-3.9386,-3.9388,0,0,0,0,0,0,0,-3.929,-3.9303,-3.9436,-3.9369,-3.9363,-3.9329,-3.9331,-3.9419,-3.9382,-3.9333,-3.9324,-3.933,-3.9358,-3.9381,-3.9387,-3.9526,-3.9379,-3.9385,-3.9389,-3.9392,-3.98,-3.9807,0,0,0,0,0,0,-3.9294,-3.93,-3.9435,-3.9437,-3.931,-3.9337,-3.934,-3.9378,-3.9381,-3.9375,-3.9335,-3.9323,-3.9371,-3.9379,-3.9388,-3.9581,-3.9386,-3.9393,-3.9397,-3.9794,-3.9802,-3.9809,0,0,0,0,0,0,-3.9291,-3.9308,-3.9433,-3.9366,-3.9379,-3.9347,-3.9391,-3.9382,-3.9404,-3.9382,-3.9374,-3.9365,-3.9367,-3.9378,-3.949,-3.958,-3.9396,-3.9403,-3.9786,-3.9796,-3.9806,-3.997,0,0,0,0,0,0,-3.9286,-3.9307,-3.937,-3.9368,-3.9383,-3.9535,-3.9397,-3.9387,-3.9417,-3.9402,-3.9408,-3.9403,-3.9363,-3.948,-3.9497,-3.9587,-3.9408,-3.9778,-3.9791,-3.9802,-3.9957,-3.9985,-4.0009,0,0,0,0,0,-3.928,-3.9415,-3.9374,-3.9391,-3.9461,-3.9541,-3.9549,-3.95,-3.9425,-3.9488,-3.9473,-3.9403,-3.9568,-3.9493,-3.951,-3.9604,-3.9772,-3.9787,-3.9801,-3.9945,-3.9979,-4.0008,0,0,0,0,0,0,-3.9427,-3.9413,-3.9368,-3.9506,-3.9526,-3.9517,-3.9595,-3.9538,-3.9579,-3.9564,-3.9501,-3.9504,-3.9627,-3.9627,-3.9543,-3.9765,-3.9657,-3.9676,-3.976,-3.9792,-3.9818,-3.9814,-3.9414,0,0,0,0,0,-3.9476,-3.9542,-3.9526,-3.965,-3.9662,-3.9628,-3.966,-3.9621,-3.9639,-3.9646,-3.964,-3.966,-3.9716,-3.9754,-3.9805,-3.9957,-3.9955,-4.003,-4.0056,-4.0077,-4.0094,-4.0174,-4.0206,-3.9858,-3.9857,-3.9857,0,0,-3.9577,-3.9578,-3.9623,-3.968,-3.969,-3.976,-3.9635,-3.9714,-3.9765,-3.9658,-3.9763,-3.976,-3.9778,-3.9911,-3.9969,-3.9914,-4.0191,-4.0096,-4.0113,-4.0118,-4.0192,-4.0225,-4.0255,-3.9868,-3.9866,-3.9864,0,0,-3.9797,-3.9805,-3.9908,-3.9921,-3.9939,-3.9915,-3.9941,-3.9941,-3.9935,-4.004,-3.9961,-4.0021,-4.0119,-4.0135,-4.0156,-4.0384,-4.032,-4.0402,-4.0537,-4.0615,-4.0643,-4.0667,-4.0747,-4.0777,-4.0419,-4.0419,-4.042,0,-3.992,-4.0022,-3.9968,-4.0053,-4.008,-3.9987,-4.0091,-4.0107,-4.0141,-4.0161,-4.01,-4.0222,-4.0228,-4.0362,-4.0418,-4.0439,-4.0465,-4.04,-4.0643,-4.0667,-4.0688,-4.0764,-4.0795,-4.0429,-4.0428,-4.0427,-4.0426,0,-4.0172,-4.0244,-4.0325,-4.036,-4.0397,-4.0491,-4.0452,-4.0495,-4.0454,-4.0436,-4.0544,-4.0548,-4.0598,-4.0627,-4.0587,-4.0757,-4.0722,-4.0654,-4.0544,-4.0732,-4.0802,-4.0831,-4.0443,-4.044,-4.0437,-4.0434,0,0,-4.0483,-4.0488,-4.0519,-4.0534,-4.0547,-4.0602,-4.0692,-4.0741,-4.0779,-4.0806,-4.088,-4.0966,-4.0902,-4.0926,-4.0888,-4.0957,-4.1136,-4.0879,-4.0879,-4.0926,-4.1322,-4.1373,-4.1407,-4.1095,-4.11,-4.1104,-4.132,0,-4.0697,-4.0851,-4.0806,-4.0961,-4.1026,-4.094,-4.1019,-4.1036,-4.1023,-4.1076,-4.1061,-4.1123,-4.1035,-4.1049,-4.1114,-4.1101,-4.1214,-4.1085,-4.1162,-4.1165,-4.1158,-4.1444,-4.1497,-4.1701,-4.1347,-4.1352,-4.1355,0,-4.0967,-4.1005,-4.1167,-4.1169,-4.1195,-4.1267,-4.1308,-4.1361,-4.1378,-4.1364,-4.1392,-4.1339,-4.1428,-4.1319,-4.144,-4.1353,-4.1382,-4.1381,-4.1387,-4.1391,-4.127,-4.1454,-4.1764,-4.1795,-4.1398,-4.1395,-4.1392,0,-4.1177,-4.1268,-4.1376,-4.1392,-4.1398,-4.145,-4.1456,-4.1467,-4.15,-4.1536,-4.1556,-4.1603,-4.1628,-4.1666,-4.1627,-4.1552,-4.1754,-4.1642,-4.1744,-4.1745,-4.1788,-4.1786,-4.2106,-4.1811,-4.181,-4.181,-4.1809,0,-4.1419,-4.1521,-4.147,-4.1537,-4.1648,-4.1596,-4.1708,-4.1703,-4.1715,-4.1779,-4.1708,-4.1769,-4.1715,-4.1772,-4.1743,-4.1847,-4.1859,-4.185,-4.184,-4.1855,-4.1856,-4.1872,-4.1856,-4.1818,-4.1816,-4.1814,-4.1813,0,-4.1671,-4.1641,-4.1753,-4.1751,-4.1753,-4.1835,-4.1832,-4.1894,-4.1876,-4.1958,-4.1974,-4.1946,-4.201,-4.1975,-4.2041,-4.2021,-4.2156,-4.2128,-4.215,-4.2142,-4.2244,-4.2235,-4.2585,-4.2627,-4.2306,-4.231,-4.2312,0,-4.1827,-4.1903,-4.1909,-4.1947,-4.1957,-4.2019,-4.2052,-4.2005,-4.2042,-4.2068,-4.2127,-4.2184,-4.2227,-4.2332,-4.2318,-4.2367,-4.2339,-4.2459,-4.2346,-4.2358,-4.2339,-4.2334,-4.2341,-4.248,-4.2484,-4.2487,-4.249,0,-4.2106,-4.2088,-4.2138,-4.2184,-4.2226,-4.2259,-4.2287,-4.2322,-4.2275,-4.2321,-4.2385,-4.2419,-4.2485,-4.2543,-4.2586,-4.2591,-4.2533,-4.2526,-4.2552,-4.2566,-4.2575,-4.257,-4.221,-4.2517,-4.2515,-4.2513,-4.2511,-4.251,-4.2313,-4.2377,-4.2391,-4.245,-4.2466,-4.2494,-4.2551,-4.2542,-4.2594,-4.2645,-4.2614,-4.2689,-4.2706,-4.2757,-4.277,-4.2828,-4.278,-4.2818,-4.2827,-4.2837,-4.285,-4.2568,-4.2836,-4.2835,-4.2834,-4.2834,-4.2833,0,-4.2587,-4.2593,-4.2647,-4.2689,-4.2735,-4.2678,-4.2706,-4.2748,-4.2815,-4.2836,-4.288,-4.2954,-4.301,-4.3001,-4.3052,-4.31,-4.3075,-4.3115,-4.3109,-4.3111,-4.289,-4.2862,-4.3134,-4.3134,-4.3134,-4.3134,-4.3134,-4.3134,-4.2735,-4.284,-4.2824,-4.2936,-4.294,-4.3013,-4.3034,-4.306,-4.3076,-4.3161,-4.3208,-4.3202,-4.321,-4.3262,-4.331,-4.3306,-4.3327,-4.3377,-4.3364,-4.3157,-4.3127,-4.3098,-4.3072,-4.3383,-4.3383,-4.3579,-4.3581,-4.3582]},{"header":{"parameterUnit":"m.s-1","parameterCategory":1,"la1":30.2991,"la2":30.254,"lo1":-89.0895,"lo2":-89.0444,"dy":0.0017,"dx":0.0017,"nx":28,"ny":28,"refTime":"2025-12-20T09:00:00:Z","depth":0,"parameterNumber":3,"parameterNumberName":"V-component_of_WINDS"},"data":[0,0,0,0,0,0,0,0,0,0,0,0,0,0,0,0,0,0,0,0,0,0,0,0,0,0,0,0,0,0,0,0,0,0,0,0,0,0,0,0,0,0,0,0,0,0,0,0,0,0,0,0,0,0,0,0,0,0,-0.4234,-0.4233,0,-0.417,-0.4169,-0.4168,-0.4182,-0.4183,-0.4184,-0.4185,-0.412,-0.4117,-0.4115,0,0,0,0,0,0,0,0,0,0,0,0,0,-0.4366,-0.4363,-0.4234,-0.4233,-0.4232,-0.417,-0.4169,-0.4168,-0.4182,-0.4183,-0.4184,-0.4186,-0.4121,-0.4118,-0.4114,0,0,0,0,0,0,0,0,0,0,0,0,0,-0.4306,-0.4363,-0.4234,-0.4231,-0.423,-0.417,-0.4169,-0.4168,-0.4181,-0.4183,-0.4185,-0.4186,-0.4122,-0.4118,-0.4114,-0.4052,0,0,-0.4101,-0.4099,0,0,0,0,0,0,0,0,-0.4309,-0.4301,-0.4232,-0.4231,-0.423,-0.4186,-0.4192,-0.4129,-0.4181,-0.42,-0.4185,-0.4187,-0.4141,-0.4135,-0.4119,-0.4049,-0.4047,-0.4101,-0.4098,-0.4096,-0.4095,0,0,0,0,0,0,0,-0.4313,-0.4304,-0.4208,-0.4231,-0.423,-0.4233,-0.4226,-0.418,-0.4161,-0.4198,-0.4199,-0.4191,-0.414,-0.4123,-0.4118,-0.4046,-0.4101,-0.4097,-0.4094,-0.4093,-0.3919,-0.3917,0,0,0,0,0,0,-0.4319,-0.4307,-0.421,-0.4206,-0.4275,-0.4229,-0.4222,-0.4198,-0.4162,-0.4158,-0.419,-0.4192,-0.4129,-0.4123,-0.4115,-0.4038,-0.4096,-0.4092,-0.409,-0.3921,-0.3919,-0.3916,0,0,0,0,0,0,-0.4321,-0.431,-0.4213,-0.4257,-0.4245,-0.4225,-0.4198,-0.4196,-0.4179,-0.4155,-0.4152,-0.4176,-0.4131,-0.4121,-0.4067,-0.4036,-0.409,-0.4086,-0.3924,-0.392,-0.3917,-0.3885,0,0,0,0,0,0,-0.4325,-0.4311,-0.4288,-0.4256,-0.4242,-0.4166,-0.4196,-0.4193,-0.4171,-0.4174,-0.4141,-0.4138,-0.4131,-0.4073,-0.4063,-0.4031,-0.4083,-0.3926,-0.3922,-0.3918,-0.3889,-0.3881,-0.3875,0,0,0,0,0,-0.433,-0.4282,-0.4286,-0.4275,-0.4213,-0.4164,-0.4156,-0.415,-0.4169,-0.4145,-0.4129,-0.4139,-0.4042,-0.4068,-0.4056,-0.4023,-0.3928,-0.3923,-0.3919,-0.3892,-0.3883,-0.3875,0,0,0,0,0,0,-0.4311,-0.4278,-0.4282,-0.4223,-0.4196,-0.4167,-0.4136,-0.4141,-0.4109,-0.4112,-0.4106,-0.4098,-0.4042,-0.4028,-0.4057,-0.396,-0.3988,-0.398,-0.3971,-0.3962,-0.3956,-0.3959,-0.408,0,0,0,0,0,-0.4299,-0.4263,-0.4236,-0.4186,-0.4172,-0.4156,-0.4135,-0.4132,-0.4104,-0.4093,-0.4074,-0.4047,-0.401,-0.3986,-0.3951,-0.3888,-0.3879,-0.3859,-0.3852,-0.3846,-0.3839,-0.3802,-0.3792,-0.3901,-0.3901,-0.3901,0,0,-0.4276,-0.4253,-0.4231,-0.4181,-0.416,-0.4121,-0.4147,-0.4106,-0.4076,-0.4087,-0.4034,-0.4019,-0.3988,-0.3928,-0.3901,-0.3914,-0.3808,-0.384,-0.3836,-0.3832,-0.3796,-0.3786,-0.3777,-0.3898,-0.3898,-0.3899,0,0,-0.4212,-0.4193,-0.4147,-0.4125,-0.4093,-0.4082,-0.4071,-0.4041,-0.4031,-0.3977,-0.3984,-0.3949,-0.3887,-0.3863,-0.3843,-0.3769,-0.3775,-0.3758,-0.3721,-0.3684,-0.3676,-0.3668,-0.3639,-0.3629,-0.3752,-0.3752,-0.3752,0,-0.4187,-0.4129,-0.4124,-0.408,-0.4058,-0.4065,-0.4018,-0.3998,-0.3955,-0.3939,-0.3955,-0.3874,-0.3854,-0.3788,-0.3769,-0.3754,-0.374,-0.3761,-0.3677,-0.367,-0.3662,-0.3634,-0.3624,-0.375,-0.375,-0.375,-0.375,0,-0.4098,-0.4057,-0.4025,-0.3982,-0.3956,-0.3912,-0.3899,-0.3873,-0.3872,-0.386,-0.3804,-0.378,-0.3739,-0.3724,-0.3724,-0.3656,-0.3665,-0.3679,-0.3706,-0.365,-0.3623,-0.3613,-0.3747,-0.3747,-0.3748,-0.3748,0,0,-0.402,-0.3974,-0.3962,-0.3942,-0.3906,-0.3874,-0.3829,-0.3789,-0.3765,-0.3736,-0.3697,-0.3643,-0.3655,-0.3632,-0.3629,-0.3598,-0.3537,-0.3615,-0.3614,-0.3599,-0.3458,-0.3446,-0.3434,-0.3542,-0.354,-0.3538,-0.346,0,-0.3951,-0.3871,-0.3864,-0.3792,-0.3753,-0.376,-0.372,-0.3693,-0.368,-0.3645,-0.3632,-0.3592,-0.3612,-0.3598,-0.3567,-0.3551,-0.3508,-0.3557,-0.3503,-0.3502,-0.3508,-0.342,-0.3407,-0.3334,-0.345,-0.3448,-0.3447,0,-0.386,-0.3826,-0.375,-0.3717,-0.37,-0.3665,-0.3626,-0.3593,-0.3562,-0.3555,-0.3528,-0.3529,-0.3482,-0.3512,-0.3446,-0.3479,-0.3457,-0.3445,-0.3442,-0.3435,-0.3469,-0.3408,-0.3312,-0.3299,-0.3431,-0.3432,-0.3433,0,-0.3807,-0.3743,-0.3688,-0.3671,-0.3632,-0.3606,-0.3589,-0.356,-0.3535,-0.3501,-0.3485,-0.3446,-0.3424,-0.3394,-0.3384,-0.3408,-0.3317,-0.3347,-0.3308,-0.3308,-0.3287,-0.3288,-0.3183,-0.3277,-0.3277,-0.3278,-0.3278,0,-0.3729,-0.3681,-0.3663,-0.3629,-0.3575,-0.3568,-0.3515,-0.3499,-0.3473,-0.3435,-0.3439,-0.3404,-0.3394,-0.3356,-0.3349,-0.3293,-0.3284,-0.3276,-0.3274,-0.3274,-0.3274,-0.3257,-0.3261,-0.3275,-0.3275,-0.3276,-0.3276,0,-0.366,-0.3646,-0.3586,-0.3554,-0.3544,-0.3506,-0.3478,-0.3445,-0.3432,-0.3384,-0.3373,-0.3353,-0.3309,-0.3296,-0.3244,-0.3239,-0.3172,-0.3177,-0.3182,-0.3181,-0.3141,-0.3144,-0.302,-0.3002,-0.3111,-0.311,-0.3109,0,-0.3609,-0.3573,-0.3536,-0.351,-0.3491,-0.3451,-0.3425,-0.3417,-0.3389,-0.3351,-0.3321,-0.3278,-0.3242,-0.3171,-0.3152,-0.3111,-0.3112,-0.3072,-0.3106,-0.3107,-0.3108,-0.3109,-0.3104,-0.3064,-0.3063,-0.3062,-0.3061,0,-0.3521,-0.3515,-0.3478,-0.3437,-0.3406,-0.3374,-0.3343,-0.3322,-0.3309,-0.3278,-0.3232,-0.3204,-0.315,-0.3105,-0.3064,-0.3046,-0.305,-0.3051,-0.3039,-0.3037,-0.3041,-0.3035,-0.3161,-0.3053,-0.3054,-0.3055,-0.3055,-0.3055,-0.3457,-0.3424,-0.3392,-0.3349,-0.3325,-0.3295,-0.3261,-0.3244,-0.3206,-0.316,-0.3158,-0.3107,-0.3076,-0.302,-0.3,-0.296,-0.2972,-0.2956,-0.2951,-0.2946,-0.2941,-0.3049,-0.2953,-0.2953,-0.2953,-0.2954,-0.2954,0,-0.3366,-0.3345,-0.3306,-0.3262,-0.3228,-0.3236,-0.3202,-0.3172,-0.3128,-0.3098,-0.3063,-0.3009,-0.2966,-0.2943,-0.2899,-0.2872,-0.2873,-0.286,-0.2861,-0.2856,-0.2935,-0.2948,-0.286,-0.286,-0.286,-0.286,-0.286,-0.286,-0.3314,-0.3257,-0.3247,-0.3177,-0.3157,-0.3107,-0.3087,-0.3059,-0.3035,-0.2974,-0.2938,-0.2923,-0.2896,-0.285,-0.281,-0.2805,-0.2787,-0.2773,-0.2768,-0.2841,-0.2851,-0.286,-0.2872,-0.277,-0.277,-0.2692,-0.2692,-0.2691]}]]